Location: Arroyo Retuerta
(40.5469°N, 4.3534°W)
Time: 06:00:44
(UTC+00:00)

Cosmos 1842 - Pass Details

Date: 01 June 2020
Orbit: 521 x 537 km, 82.5° (Epoch: 05 July)

Event Time Altitude Azimuth Distance (km) Brightness Sun altitude
Exits shadow 22:23:27 84° 200° (SSW) 538 3.1 -22.0°
Maximum altitude 22:23:34 89° 276° (W) 536 3.1 -22.1°
Drops below altitude 10° 22:27:29 10° 7° (N) 1,780 6.7 -22.4°
Sets 22:29:38 0° 8° (N) 2,671 7.7 -22.6°
